| time (UTC) | temp F | wind direction | speed MPH | gust MPH | rain 1hr in | rain 24hr in | rain mn in | humidity % | barometer mb |
| 20260831153759 | 93 | 132 | 3.0 | 3.0 | 0.00 | 0.00 | 0.00 | 43 | 1019.4 |
| 20260831153250 | 93 | 300 | 5.0 | 6.0 | 0.00 | 0.00 | 0.00 | 44 | 1019.4 |
| 20260831152746 | 93 | 127 | 1.0 | 2.0 | 0.00 | 0.00 | 0.00 | 44 | 1019.4 |
| 20260831152242 | 93 | 24 | 1.0 | 1.0 | 0.00 | 0.00 | 0.00 | 44 | 1019.8 |
| 20260831151741 | 92 | 199 | 7.0 | 9.0 | 0.00 | 0.00 | 0.00 | 44 | 1019.4 |
| 20260831151240 | 92 | 150 | 4.0 | 5.0 | 0.00 | 0.00 | 0.00 | 45 | 1019.4 |
| 20260831150736 | 92 | 95 | 2.0 | 2.0 | 0.00 | 0.00 | 0.00 | 45 | 1019.4 |
| 20260831150232 | 91 | 161 | 2.0 | 2.0 | 0.00 | 0.00 | 0.00 | 46 | 1019.4 |
| 20260831145731 | 91 | 49 | 5.0 | 6.0 | 0.00 | 0.00 | 0.00 | 46 | 1019.4 |
| 20260831145227 | 90 | 104 | 3.0 | 3.0 | 0.00 | 0.00 | 0.00 | 47 | 1019.1 |
| 20260831144723 | 89 | 351 | 0.0 | 0.0 | 0.00 | 0.00 | 0.00 | 49 | 1019.1 |
| 20260831144219 | 88 | 161 | 4.0 | 5.0 | 0.00 | 0.00 | 0.00 | 50 | 1019.1 |
| 20260831143718 | 88 | 165 | 4.0 | 5.0 | 0.00 | 0.00 | 0.00 | 50 | 1019.4 |
| 20260831143214 | 87 | 145 | 3.0 | 3.0 | 0.00 | 0.00 | 0.00 | 52 | 1019.1 |
| 20260831142709 | 86 | 162 | 4.0 | 5.0 | 0.00 | 0.00 | 0.00 | 52 | 1019.1 |
| 20260831142205 | 86 | 178 | 3.0 | 3.0 | 0.00 | 0.00 | 0.00 | 54 | 1019.1 |
| 20260831141703 | 85 | 129 | 4.0 | 3.0 | 0.00 | 0.00 | 0.00 | 55 | 1019.4 |
| 20260831141158 | 85 | 93 | 2.0 | 2.0 | 0.00 | 0.00 | 0.00 | 55 | 1019.4 |
| 20260831140653 | 84 | 132 | 5.0 | 5.0 | 0.00 | 0.00 | 0.00 | 56 | 1019.1 |
| 20260831140147 | 83 | 137 | 2.0 | 2.0 | 0.00 | 0.00 | 0.00 | 59 | 1019.1 |
| 20260831135645 | 82 | 13 | 1.0 | 1.0 | 0.00 | 0.00 | 0.00 | 58 | 1019.4 |
| 20260831135141 | 81 | 319 | 0.0 | 0.0 | 0.00 | 0.00 | 0.00 | 63 | 1019.4 |
| 20260831134636 | 80 | 316 | 0.0 | 0.0 | 0.00 | 0.00 | 0.00 | 63 | 1019.1 |
| 20260831134131 | 79 | 284 | 0.0 | 0.0 | 0.00 | 0.00 | 0.00 | 66 | 1019.4 |
| 20260831133631 | 77 | 285 | 0.0 | 0.0 | 0.00 | 0.00 | 0.00 | 69 | 1019.1 |
| 20260831133126 | 76 | 285 | 0.0 | 0.0 | 0.00 | 0.00 | 0.00 | 70 | 1019.1 |
| 20260831132622 | 75 | 285 | 0.0 | 0.0 | 0.00 | 0.00 | 0.00 | 71 | 1019.1 |
| 20260831132120 | 75 | 285 | 0.0 | 0.0 | 0.00 | 0.00 | 0.00 | 73 | 1019.1 |
| 20260831131615 | 74 | 285 | 0.0 | 0.0 | 0.00 | 0.00 | 0.00 | 73 | 1019.1 |
| 20260831131112 | 73 | 285 | 0.0 | 0.0 | 0.00 | 0.00 | 0.00 | 74 | 1019.1 |
| 20260831130607 | 73 | 285 | 0.0 | 0.0 | 0.00 | 0.00 | 0.00 | 76 | 1019.1 |
| 20260831125601 | 71 | 285 | 0.0 | 0.0 | 0.00 | 0.00 | 0.00 | 79 | 1019.1 |
| 20260831125057 | 71 | 286 | 0.0 | 0.0 | 0.00 | 0.00 | 0.00 | 79 | 1019.1 |
| 20260831124553 | 70 | 286 | 0.0 | 0.0 | 0.00 | 0.00 | 0.00 | 80 | 1019.1 |
| 20260831124048 | 69 | 286 | 0.0 | 0.0 | 0.00 | 0.00 | 0.00 | 83 | 1018.8 |
| 20260831123547 | 67 | 286 | 0.0 | 0.0 | 0.00 | 0.00 | 0.00 | 86 | 1018.8 |
| 20260831123043 | 66 | 286 | 0.0 | 0.0 | 0.00 | 0.00 | 0.00 | 89 | 1018.8 |
| 20260831122536 | 66 | 286 | 0.0 | 0.0 | 0.00 | 0.00 | 0.00 | 89 | 1018.4 |
| 20260831122032 | 66 | 286 | 0.0 | 0.0 | 0.00 | 0.00 | 0.00 | 90 | 1018.8 |
| 20260831121527 | 65 | 286 | 0.0 | 0.0 | 0.00 | 0.00 | 0.00 | 91 | 1018.8 |
| 20260831121023 | 65 | 286 | 0.0 | 0.0 | 0.00 | 0.00 | 0.00 | 92 | 1018.1 |
| 20260831120522 | 65 | 286 | 0.0 | 0.0 | 0.00 | 0.00 | 0.00 | 92 | 1018.4 |
| 20260831120018 | 65 | 286 | 0.0 | 0.0 | 0.00 | 0.00 | 0.00 | 92 | 1018.1 |
| 20260831115514 | 65 | 286 | 0.0 | 0.0 | 0.00 | 0.00 | 0.00 | 92 | 1018.1 |
| 20260831115009 | 65 | 286 | 0.0 | 0.0 | 0.00 | 0.00 | 0.00 | 92 | 1017.6 |
| 20260831114507 | 65 | 286 | 0.0 | 0.0 | 0.00 | 0.00 | 0.00 | 92 | 1017.6 |
| 20260831114002 | 65 | 286 | 0.0 | 0.0 | 0.00 | 0.00 | 0.00 | 92 | 1018.1 |
| 20260831113502 | 65 | 286 | 0.0 | 0.0 | 0.00 | 0.00 | 0.00 | 92 | 1017.6 |
| 20260831112958 | 65 | 286 | 0.0 | 0.0 | 0.00 | 0.00 | 0.00 | 92 | 1017.6 |
| 20260831112452 | 65 | 286 | 0.0 | 0.0 | 0.00 | 0.00 | 0.00 | 92 | 1017.6 |
| 20260831111947 | 65 | 286 | 0.0 | 0.0 | 0.00 | 0.00 | 0.00 | 92 | 1017.6 |
| 20260831111443 | 65 | 286 | 0.0 | 0.0 | 0.00 | 0.00 | 0.00 | 91 | 1017.6 |
| 20260831110938 | 65 | 286 | 0.0 | 0.0 | 0.00 | 0.00 | 0.00 | 91 | 1017.3 |
| 20260831110433 | 65 | 286 | 0.0 | 0.0 | 0.00 | 0.00 | 0.00 | 91 | 1017.3 |
| 20260831105932 | 65 | 286 | 0.0 | 0.0 | 0.00 | 0.00 | 0.00 | 91 | 1017.3 |
| 20260831105428 | 65 | 286 | 0.0 | 0.0 | 0.00 | 0.00 | 0.00 | 91 | 1017.6 |
| 20260831104922 | 66 | 286 | 0.0 | 0.0 | 0.00 | 0.00 | 0.00 | 91 | 1017.6 |
| 20260831104413 | 66 | 286 | 0.0 | 0.0 | 0.00 | 0.00 | 0.00 | 91 | 1017.3 |
| 20260831103908 | 66 | 301 | 0.0 | 0.0 | 0.00 | 0.00 | 0.00 | 91 | 1017.3 |
| 20260831103403 | 66 | 301 | 0.0 | 0.0 | 0.00 | 0.00 | 0.00 | 91 | 1017.3 |
| 20260831102858 | 66 | 301 | 0.0 | 0.0 | 0.00 | 0.00 | 0.00 | 91 | 1017.6 |
| 20260831102353 | 66 | 301 | 0.0 | 0.0 | 0.00 | 0.00 | 0.00 | 91 | 1017.3 |
| 20260831101848 | 66 | 301 | 0.0 | 0.0 | 0.00 | 0.00 | 0.00 | 91 | 1017.3 |
| 20260831101348 | 66 | 301 | 0.0 | 0.0 | 0.00 | 0.00 | 0.00 | 91 | 1017.3 |
| 20260831100844 | 66 | 299 | 0.0 | 0.0 | 0.00 | 0.00 | 0.00 | 91 | 1017.3 |
| 20260831100340 | 66 | 299 | 0.0 | 0.0 | 0.00 | 0.00 | 0.00 | 91 | 1017.3 |
| 20260831095839 | 66 | 299 | 0.0 | 0.0 | 0.00 | 0.00 | 0.00 | 91 | 1017.3 |
| 20260831095334 | 66 | 299 | 0.0 | 0.0 | 0.00 | 0.00 | 0.00 | 91 | 1017.3 |
| 20260831094829 | 66 | 299 | 0.0 | 0.0 | 0.00 | 0.00 | 0.00 | 90 | 1017.3 |
| 20260831094324 | 66 | 299 | 0.0 | 0.0 | 0.00 | 0.00 | 0.00 | 90 | 1017.3 |
| 20260831093820 | 67 | 299 | 0.0 | 0.0 | 0.00 | 0.00 | 0.00 | 90 | 1017.6 |
| 20260831093316 | 67 | 299 | 0.0 | 0.0 | 0.00 | 0.00 | 0.00 | 90 | 1017.3 |
| 20260831092812 | 67 | 299 | 0.0 | 0.0 | 0.00 | 0.00 | 0.00 | 89 | 1017.6 |
| 20260831092308 | 67 | 299 | 0.0 | 0.0 | 0.00 | 0.00 | 0.00 | 89 | 1017.3 |
| 20260831091802 | 67 | 299 | 0.0 | 0.0 | 0.00 | 0.00 | 0.00 | 89 | 1017.3 |
| 20260831091258 | 67 | 299 | 0.0 | 0.0 | 0.00 | 0.00 | 0.00 | 89 | 1017.3 |
| 20260831090753 | 67 | 299 | 0.0 | 0.0 | 0.00 | 0.00 | 0.00 | 89 | 1017.3 |
| 20260831090249 | 67 | 299 | 0.0 | 0.0 | 0.00 | 0.00 | 0.00 | 89 | 1017.6 |
| 20260831085745 | 67 | 299 | 0.0 | 0.0 | 0.00 | 0.00 | 0.00 | 89 | 1017.3 |
| 20260831085239 | 68 | 299 | 0.0 | 0.0 | 0.00 | 0.00 | 0.00 | 89 | 1017.3 |
| 20260831084734 | 68 | 299 | 0.0 | 0.0 | 0.00 | 0.00 | 0.00 | 89 | 1017.3 |
| 20260831084231 | 68 | 299 | 0.0 | 0.0 | 0.00 | 0.00 | 0.00 | 89 | 1017.3 |
| 20260831083727 | 68 | 299 | 0.0 | 0.0 | 0.00 | 0.00 | 0.00 | 88 | 1017.3 |
| 20260831083222 | 68 | 299 | 0.0 | 0.0 | 0.00 | 0.00 | 0.00 | 88 | 1017.3 |
| 20260831082720 | 68 | 299 | 0.0 | 0.0 | 0.00 | 0.00 | 0.00 | 88 | 1017.3 |
| 20260831082210 | 68 | 299 | 0.0 | 0.0 | 0.00 | 0.00 | 0.00 | 87 | 1017.3 |
| 20260831081705 | 69 | 299 | 0.0 | 0.0 | 0.00 | 0.00 | 0.00 | 87 | 1017.3 |
| 20260831081201 | 69 | 299 | 0.0 | 0.0 | 0.00 | 0.00 | 0.00 | 87 | 1017.3 |
| 20260831080656 | 69 | 299 | 0.0 | 0.0 | 0.00 | 0.00 | 0.00 | 86 | 1017.0 |
| 20260831080150 | 69 | 299 | 0.0 | 0.0 | 0.00 | 0.00 | 0.00 | 86 | 1017.0 |
| 20260831075647 | 69 | 299 | 0.0 | 0.0 | 0.00 | 0.00 | 0.00 | 86 | 1017.0 |
| 20260831075142 | 69 | 299 | 0.0 | 0.0 | 0.00 | 0.00 | 0.00 | 86 | 1017.3 |
| 20260831074641 | 69 | 299 | 0.0 | 0.0 | 0.00 | 0.00 | 0.00 | 86 | 1017.0 |
| 20260831074136 | 69 | 299 | 0.0 | 0.0 | 0.00 | 0.00 | 0.00 | 85 | 1016.6 |
| 20260831073631 | 69 | 299 | 0.0 | 0.0 | 0.00 | 0.00 | 0.00 | 85 | 1017.0 |
| 20260831073130 | 70 | 299 | 0.0 | 0.0 | 0.00 | 0.00 | 0.00 | 85 | 1017.0 |
| 20260831072626 | 70 | 299 | 0.0 | 0.0 | 0.00 | 0.00 | 0.00 | 85 | 1017.3 |
| 20260831072122 | 70 | 299 | 0.0 | 0.0 | 0.00 | 0.00 | 0.00 | 84 | 1017.0 |
| 20260831071621 | 70 | 299 | 0.0 | 0.0 | 0.00 | 0.00 | 0.00 | 83 | 1017.3 |
| 20260831071116 | 71 | 299 | 0.0 | 0.0 | 0.00 | 0.00 | 0.00 | 83 | 1017.0 |
| 20260831070615 | 71 | 299 | 0.0 | 0.0 | 0.00 | 0.00 | 0.00 | 82 | 1017.0 |
| 20260831070110 | 71 | 299 | 0.0 | 0.0 | 0.00 | 0.00 | 0.00 | 82 | 1017.0 |
| 20260831065608 | 71 | 299 | 0.0 | 0.0 | 0.00 | 0.00 | 0.00 | 81 | 1017.3 |
| 20260831065103 | 71 | 299 | 0.0 | 0.0 | 0.00 | 0.00 | 0.00 | 81 | 1017.0 |
| 20260831064558 | 71 | 299 | 0.0 | 0.0 | 0.00 | 0.00 | 0.00 | 80 | 1017.3 |
| 20260831064053 | 71 | 299 | 0.0 | 0.0 | 0.00 | 0.00 | 0.00 | 81 | 1017.3 |
| 20260831063548 | 72 | 299 | 0.0 | 0.0 | 0.00 | 0.00 | 0.00 | 80 | 1017.3 |
| 20260831063049 | 72 | 299 | 0.0 | 0.0 | 0.00 | 0.00 | 0.00 | 80 | 1017.3 |
| 20260831062544 | 72 | 299 | 0.0 | 0.0 | 0.00 | 0.00 | 0.00 | 80 | 1017.3 |
| 20260831062043 | 72 | 299 | 0.0 | 0.0 | 0.00 | 0.00 | 0.00 | 80 | 1017.3 |
| 20260831061541 | 72 | 299 | 0.0 | 0.0 | 0.00 | 0.00 | 0.00 | 79 | 1017.3 |
| 20260831061038 | 72 | 299 | 0.0 | 0.0 | 0.00 | 0.00 | 0.00 | 79 | 1017.3 |
| 20260831060538 | 72 | 299 | 0.0 | 0.0 | 0.00 | 0.00 | 0.00 | 79 | 1017.3 |
| 20260831060033 | 72 | 299 | 0.0 | 0.0 | 0.00 | 0.00 | 0.00 | 79 | 1017.0 |
| 20260831055527 | 72 | 299 | 0.0 | 0.0 | 0.00 | 0.00 | 0.00 | 79 | 1017.3 |
| 20260831055023 | 72 | 299 | 0.0 | 0.0 | 0.00 | 0.00 | 0.00 | 79 | 1017.3 |
| 20260831054522 | 73 | 299 | 0.0 | 0.0 | 0.00 | 0.00 | 0.00 | 78 | 1017.0 |
| 20260831054022 | 73 | 299 | 0.0 | 0.0 | 0.00 | 0.00 | 0.00 | 78 | 1017.0 |
| 20260831053520 | 73 | 299 | 0.0 | 0.0 | 0.00 | 0.00 | 0.00 | 78 | 1017.3 |
| 20260831053015 | 73 | 299 | 0.0 | 0.0 | 0.00 | 0.00 | 0.00 | 78 | 1017.3 |
| 20260831052514 | 73 | 299 | 0.0 | 0.0 | 0.00 | 0.00 | 0.00 | 78 | 1017.0 |
| 20260831052014 | 73 | 299 | 0.0 | 0.0 | 0.00 | 0.00 | 0.00 | 77 | 1017.0 |
| 20260831051512 | 73 | 299 | 0.0 | 0.0 | 0.00 | 0.00 | 0.00 | 77 | 1017.0 |
| 20260831051012 | 73 | 299 | 0.0 | 0.0 | 0.00 | 0.00 | 0.00 | 77 | 1017.0 |
| 20260831050512 | 73 | 299 | 0.0 | 0.0 | 0.00 | 0.00 | 0.00 | 76 | 1017.0 |
| 20260831050011 | 74 | 299 | 0.0 | 0.0 | 0.00 | 0.00 | 0.00 | 76 | 1017.0 |
| 20260831045510 | 74 | 299 | 0.0 | 0.0 | 0.00 | 0.00 | 0.00 | 75 | 1017.0 |
| 20260831045005 | 75 | 299 | 0.0 | 0.0 | 0.00 | 0.00 | 0.00 | 74 | 1016.6 |
| 20260831044500 | 75 | 299 | 0.0 | 0.0 | 0.00 | 0.00 | 0.00 | 73 | 1016.6 |
| 20260831043956 | 75 | 299 | 0.0 | 0.0 | 0.00 | 0.00 | 0.00 | 72 | 1016.6 |
| 20260831043455 | 76 | 299 | 0.0 | 0.0 | 0.00 | 0.00 | 0.00 | 72 | 1016.6 |
| 20260831042951 | 76 | 299 | 0.0 | 0.0 | 0.00 | 0.00 | 0.00 | 71 | 1016.6 |
| 20260831042450 | 76 | 299 | 0.0 | 0.0 | 0.00 | 0.00 | 0.00 | 69 | 1016.6 |
| 20260831041945 | 77 | 299 | 0.0 | 0.0 | 0.00 | 0.00 | 0.00 | 68 | 1016.6 |
| 20260831041440 | 77 | 299 | 0.0 | 0.0 | 0.00 | 0.00 | 0.00 | 67 | 1016.3 |
| 20260831040939 | 78 | 299 | 0.0 | 0.0 | 0.00 | 0.00 | 0.00 | 66 | 1016.3 |
| 20260831040435 | 78 | 299 | 0.0 | 0.0 | 0.00 | 0.00 | 0.00 | 66 | 1016.3 |
| 20260831035932 | 77 | 299 | 0.0 | 0.0 | 0.00 | 0.00 | 0.00 | 66 | 1016.3 |
| 20260831035431 | 77 | 299 | 0.0 | 0.0 | 0.00 | 0.00 | 0.00 | 65 | 1016.3 |
| 20260831034926 | 77 | 299 | 0.0 | 0.0 | 0.00 | 0.00 | 0.00 | 66 | 1016.3 |
| 20260831034421 | 77 | 299 | 0.0 | 0.0 | 0.00 | 0.00 | 0.00 | 67 | 1016.3 |
| 20260831033916 | 77 | 299 | 0.0 | 0.0 | 0.00 | 0.00 | 0.00 | 66 | 1016.3 |
| 20260831033412 | 77 | 299 | 0.0 | 0.0 | 0.00 | 0.00 | 0.00 | 67 | 1016.3 |
| 20260831032908 | 76 | 299 | 0.0 | 0.0 | 0.00 | 0.00 | 0.00 | 69 | 1016.3 |
| 20260831032402 | 76 | 299 | 0.0 | 0.0 | 0.00 | 0.00 | 0.00 | 69 | 1016.3 |
| 20260831031857 | 76 | 299 | 0.0 | 0.0 | 0.00 | 0.00 | 0.00 | 70 | 1016.3 |
| 20260831031356 | 75 | 299 | 0.0 | 0.0 | 0.00 | 0.00 | 0.00 | 72 | 1016.3 |
| 20260831030846 | 75 | 299 | 0.0 | 0.0 | 0.00 | 0.00 | 0.00 | 72 | 1016.3 |
| 20260831030344 | 75 | 299 | 0.0 | 0.0 | 0.00 | 0.00 | 0.00 | 73 | 1016.3 |
| 20260831025838 | 75 | 299 | 0.0 | 0.0 | 0.00 | 0.00 | 0.00 | 73 | 1016.3 |
| 20260831025337 | 76 | 299 | 0.0 | 0.0 | 0.00 | 0.00 | 0.00 | 72 | 1016.3 |
| 20260831024832 | 76 | 299 | 0.0 | 0.0 | 0.00 | 0.00 | 0.00 | 72 | 1015.9 |
| 20260831024331 | 76 | 299 | 0.0 | 0.0 | 0.00 | 0.00 | 0.00 | 72 | 1015.9 |
| 20260831023826 | 76 | 299 | 0.0 | 0.0 | 0.00 | 0.00 | 0.00 | 72 | 1015.9 |
| 20260831023324 | 76 | 299 | 0.0 | 0.0 | 0.00 | 0.00 | 0.00 | 71 | 1015.9 |
| 20260831022820 | 76 | 299 | 0.0 | 0.0 | 0.00 | 0.00 | 0.00 | 71 | 1016.3 |
| 20260831022318 | 77 | 299 | 0.0 | 0.0 | 0.00 | 0.00 | 0.00 | 71 | 1016.3 |
| 20260831021813 | 77 | 299 | 0.0 | 0.0 | 0.00 | 0.00 | 0.00 | 70 | 1015.9 |
| 20260831021308 | 77 | 299 | 0.0 | 0.0 | 0.00 | 0.00 | 0.00 | 70 | 1015.6 |
| 20260831020804 | 77 | 299 | 0.0 | 0.0 | 0.00 | 0.00 | 0.00 | 70 | 1015.9 |
| 20260831020302 | 77 | 299 | 0.0 | 0.0 | 0.00 | 0.00 | 0.00 | 69 | 1015.6 |
| 20260831015758 | 78 | 299 | 0.0 | 0.0 | 0.00 | 0.00 | 0.00 | 69 | 1015.9 |
| 20260831015254 | 78 | 299 | 0.0 | 0.0 | 0.00 | 0.00 | 0.00 | 68 | 1015.6 |
| 20260831014748 | 78 | 299 | 0.0 | 0.0 | 0.00 | 0.00 | 0.00 | 68 | 1015.6 |
| 20260831014243 | 78 | 299 | 0.0 | 0.0 | 0.00 | 0.00 | 0.00 | 67 | 1015.6 |
| 20260831013739 | 79 | 299 | 0.0 | 0.0 | 0.00 | 0.00 | 0.00 | 67 | 1015.6 |
| 20260831013238 | 79 | 299 | 0.0 | 0.0 | 0.00 | 0.00 | 0.00 | 66 | 1015.3 |
| 20260831012733 | 79 | 299 | 0.0 | 0.0 | 0.00 | 0.00 | 0.00 | 65 | 1015.3 |
| 20260831012229 | 80 | 299 | 0.0 | 0.0 | 0.00 | 0.00 | 0.00 | 64 | 1015.6 |
| 20260831011728 | 80 | 299 | 0.0 | 0.0 | 0.00 | 0.00 | 0.00 | 63 | 1014.9 |
| 20260831011224 | 81 | 299 | 0.0 | 0.0 | 0.00 | 0.00 | 0.00 | 63 | 1014.9 |
| 20260831010720 | 81 | 299 | 0.0 | 0.0 | 0.00 | 0.00 | 0.00 | 61 | 1014.9 |
| 20260831010214 | 82 | 299 | 0.0 | 0.0 | 0.00 | 0.00 | 0.00 | 59 | 1014.9 |
| 20260831005709 | 83 | 299 | 0.0 | 0.0 | 0.00 | 0.00 | 0.00 | 59 | 1015.3 |
| 20260831005204 | 83 | 299 | 0.0 | 0.0 | 0.00 | 0.00 | 0.00 | 57 | 1014.9 |
| 20260831004659 | 84 | 299 | 0.0 | 0.0 | 0.00 | 0.00 | 0.00 | 55 | 1014.9 |
| 20260831004155 | 85 | 300 | 0.0 | 0.0 | 0.00 | 0.00 | 0.00 | 53 | 1014.9 |
| 20260831003651 | 85 | 300 | 0.0 | 0.0 | 0.00 | 0.00 | 0.00 | 52 | 1015.3 |
| 20260831003147 | 86 | 300 | 0.0 | 0.0 | 0.00 | 0.00 | 0.00 | 50 | 1015.3 |
| 20260831002645 | 87 | 300 | 0.0 | 0.0 | 0.00 | 0.00 | 0.00 | 49 | 1014.9 |
| 20260831002141 | 87 | 300 | 0.0 | 0.0 | 0.00 | 0.00 | 0.00 | 47 | 1015.3 |
| 20260831001637 | 88 | 300 | 0.0 | 0.0 | 0.00 | 0.00 | 0.00 | 46 | 1015.3 |
| 20260831001132 | 89 | 300 | 0.0 | 0.0 | 0.00 | 0.00 | 0.00 | 44 | 1015.3 |
| 20260831000629 | 89 | 300 | 0.0 | 0.0 | 0.00 | 0.00 | 0.00 | 43 | 1015.3 |
| 20260831000129 | 90 | 300 | 0.0 | 0.0 | 0.00 | 0.00 | 0.00 | 42 | 1015.3 |
| 20260830235627 | 91 | 300 | 0.0 | 0.0 | 0.00 | 0.00 | 0.00 | 41 | 1015.3 |
| 20260830235122 | 91 | 300 | 0.0 | 0.0 | 0.00 | 0.00 | 0.00 | 40 | 1015.3 |
| 20260830234617 | 92 | 317 | 0.0 | 0.0 | 0.00 | 0.00 | 0.00 | 39 | 1015.3 |
| 20260830234113 | 92 | 318 | 0.0 | 0.0 | 0.00 | 0.00 | 0.00 | 39 | 1015.3 |
| 20260830233608 | 92 | 312 | 0.0 | 0.0 | 0.00 | 0.00 | 0.00 | 38 | 1015.3 |
| 20260830233104 | 93 | 98 | 2.0 | 5.0 | 0.00 | 0.00 | 0.00 | 37 | 1015.3 |
| 20260830232600 | 94 | 301 | 0.0 | 0.0 | 0.00 | 0.00 | 0.00 | 36 | 1015.6 |
| 20260830232056 | 94 | 306 | 0.0 | 0.0 | 0.00 | 0.00 | 0.00 | 35 | 1015.3 |
| 20260830231551 | 94 | 323 | 1.0 | 1.0 | 0.00 | 0.00 | 0.00 | 34 | 1015.3 |
| 20260830231050 | 95 | 319 | 1.0 | 1.0 | 0.00 | 0.00 | 0.00 | 34 | 1015.3 |
| 20260830230545 | 95 | 300 | 3.0 | 3.0 | 0.00 | 0.00 | 0.00 | 33 | 1015.3 |
| 20260830230040 | 95 | 310 | 0.0 | 0.0 | 0.00 | 0.00 | 0.00 | 33 | 1015.3 |
| 20260830225535 | 95 | 311 | 2.0 | 2.0 | 0.00 | 0.00 | 0.00 | 33 | 1015.3 |
| 20260830225030 | 95 | 171 | 1.0 | 2.0 | 0.00 | 0.00 | 0.00 | 32 | 1015.3 |
| 20260830224528 | 95 | 333 | 1.0 | 1.0 | 0.00 | 0.00 | 0.00 | 33 | 1015.6 |
| 20260830224025 | 95 | 278 | 2.0 | 2.0 | 0.00 | 0.00 | 0.00 | 31 | 1015.3 |
| 20260830223522 | 95 | 290 | 1.0 | 1.0 | 0.00 | 0.00 | 0.00 | 32 | 1015.3 |
| 20260830223021 | 95 | 270 | 4.0 | 5.0 | 0.00 | 0.00 | 0.00 | 32 | 1015.3 |
| 20260830222515 | 96 | 319 | 0.0 | 0.0 | 0.00 | 0.00 | 0.00 | 32 | 1015.3 |
| 20260830222011 | 96 | 286 | 3.0 | 5.0 | 0.00 | 0.00 | 0.00 | 31 | 1015.3 |
| 20260830221508 | 96 | 295 | 1.0 | 1.0 | 0.00 | 0.00 | 0.00 | 31 | 1015.3 |
| 20260830220958 | 96 | 156 | 5.0 | 7.0 | 0.00 | 0.00 | 0.00 | 32 | 1015.3 |
| 20260830220457 | 96 | 313 | 1.0 | 1.0 | 0.00 | 0.00 | 0.00 | 35 | 1015.3 |
| 20260830215954 | 96 | 157 | 3.0 | 5.0 | 0.00 | 0.00 | 0.00 | 33 | 1015.6 |
| 20260830215450 | 97 | 301 | 1.0 | 1.0 | 0.00 | 0.00 | 0.00 | 34 | 1015.6 |
| 20260830214949 | 97 | 301 | 1.0 | 2.0 | 0.00 | 0.00 | 0.00 | 33 | 1015.3 |
| 20260830214445 | 97 | 142 | 2.0 | 3.0 | 0.00 | 0.00 | 0.00 | 32 | 1015.6 |
| 20260830213940 | 98 | 283 | 2.0 | 2.0 | 0.00 | 0.00 | 0.00 | 33 | 1015.6 |
| 20260830213435 | 98 | 305 | 1.0 | 1.0 | 0.00 | 0.00 | 0.00 | 33 | 1015.6 |
| 20260830212931 | 99 | 309 | 0.0 | 1.0 | 0.00 | 0.00 | 0.00 | 33 | 1015.6 |
| 20260830212427 | 98 | 316 | 1.0 | 1.0 | 0.00 | 0.00 | 0.00 | 33 | 1015.6 |
| 20260830211926 | 98 | 167 | 4.0 | 5.0 | 0.00 | 0.00 | 0.00 | 32 | 1015.3 |
| 20260830211421 | 98 | 142 | 7.0 | 9.0 | 0.00 | 0.00 | 0.00 | 34 | 1015.6 |
| 20260830210916 | 98 | 312 | 2.0 | 2.0 | 0.00 | 0.00 | 0.00 | 34 | 1015.6 |
| 20260830210415 | 99 | 287 | 1.0 | 2.0 | 0.00 | 0.00 | 0.00 | 33 | 1015.6 |
| 20260830205912 | 99 | 302 | 1.0 | 1.0 | 0.00 | 0.00 | 0.00 | 33 | 1015.9 |
| 20260830205412 | 99 | 260 | 4.0 | 6.0 | 0.00 | 0.00 | 0.00 | 33 | 1015.9 |
| 20260830204908 | 99 | 190 | 4.0 | 5.0 | 0.00 | 0.00 | 0.00 | 33 | 1015.9 |
| 20260830204406 | 99 | 306 | 1.0 | 2.0 | 0.00 | 0.00 | 0.00 | 33 | 1015.6 |
| 20260830203901 | 99 | 323 | 0.0 | 0.0 | 0.00 | 0.00 | 0.00 | 32 | 1015.9 |
| 20260830203358 | 98 | 318 | 1.0 | 1.0 | 0.00 | 0.00 | 0.00 | 34 | 1015.9 |
| 20260830202857 | 98 | 206 | 3.0 | 3.0 | 0.00 | 0.00 | 0.00 | 33 | 1015.9 |
| 20260830202353 | 98 | 317 | 1.0 | 1.0 | 0.00 | 0.00 | 0.00 | 34 | 1015.9 |
| 20260830201848 | 98 | 312 | 0.0 | 0.0 | 0.00 | 0.00 | 0.00 | 33 | 1016.3 |
| 20260830201342 | 99 | 305 | 0.0 | 0.0 | 0.00 | 0.00 | 0.00 | 34 | 1015.9 |
| 20260830200837 | 99 | 313 | 0.0 | 0.0 | 0.00 | 0.00 | 0.00 | 33 | 1016.3 |
| 20260830200337 | 100 | 277 | 3.0 | 3.0 | 0.00 | 0.00 | 0.00 | 32 | 1015.9 |
| 20260830195832 | 99 | 321 | 0.0 | 0.0 | 0.00 | 0.00 | 0.00 | 32 | 1016.3 |
| 20260830195326 | 100 | 196 | 3.0 | 3.0 | 0.00 | 0.00 | 0.00 | 32 | 1015.9 |
| 20260830194825 | 99 | 240 | 1.0 | 2.0 | 0.00 | 0.00 | 0.00 | 33 | 1015.9 |
| 20260830194318 | 98 | 104 | 2.0 | 2.0 | 0.00 | 0.00 | 0.00 | 35 | 1016.3 |
| 20260830193813 | 98 | 151 | 6.0 | 7.0 | 0.00 | 0.00 | 0.00 | 33 | 1016.3 |
| 20260830193307 | 99 | 177 | 4.0 | 6.0 | 0.00 | 0.00 | 0.00 | 32 | 1016.6 |
| 20260830192803 | 99 | 47 | 3.0 | 3.0 | 0.00 | 0.00 | 0.00 | 33 | 1016.6 |
| 20260830192257 | 99 | 339 | 1.0 | 1.0 | 0.00 | 0.00 | 0.00 | 33 | 1016.6 |
| 20260830191753 | 99 | 153 | 3.0 | 3.0 | 0.00 | 0.00 | 0.00 | 33 | 1016.6 |
| 20260830191253 | 98 | 186 | 1.0 | 1.0 | 0.00 | 0.00 | 0.00 | 34 | 1017.0 |
| 20260830190749 | 97 | 353 | 2.0 | 2.0 | 0.00 | 0.00 | 0.00 | 34 | 1016.6 |
| 20260830190244 | 98 | 160 | 5.0 | 6.0 | 0.00 | 0.00 | 0.00 | 34 | 1017.0 |
| 20260830185742 | 98 | 274 | 1.0 | 2.0 | 0.00 | 0.00 | 0.00 | 33 | 1017.0 |
| 20260830185238 | 99 | 121 | 3.0 | 3.0 | 0.00 | 0.00 | 0.00 | 33 | 1016.6 |
| 20260830184737 | 98 | 305 | 1.0 | 1.0 | 0.00 | 0.00 | 0.00 | 34 | 1017.0 |
| 20260830184236 | 97 | 14 | 3.0 | 3.0 | 0.00 | 0.00 | 0.00 | 34 | 1017.0 |
| 20260830183732 | 97 | 149 | 3.0 | 5.0 | 0.00 | 0.00 | 0.00 | 34 | 1017.3 |
| 20260830183226 | 98 | 219 | 3.0 | 3.0 | 0.00 | 0.00 | 0.00 | 33 | 1017.3 |
| 20260830182721 | 98 | 77 | 3.0 | 3.0 | 0.00 | 0.00 | 0.00 | 33 | 1017.0 |
| 20260830182218 | 97 | 294 | 2.0 | 2.0 | 0.00 | 0.00 | 0.00 | 34 | 1017.0 |
| 20260830181714 | 97 | 138 | 3.0 | 5.0 | 0.00 | 0.00 | 0.00 | 34 | 1017.3 |
| 20260830181214 | 97 | 148 | 6.0 | 8.0 | 0.00 | 0.00 | 0.00 | 33 | 1017.0 |
| 20260830180713 | 96 | 168 | 6.0 | 6.0 | 0.00 | 0.00 | 0.00 | 34 | 1017.3 |
| 20260830180208 | 95 | 94 | 2.0 | 3.0 | 0.00 | 0.00 | 0.00 | 34 | 1017.3 |
| 20260830175707 | 96 | 154 | 7.0 | 9.0 | 0.00 | 0.00 | 0.00 | 34 | 1017.3 |
| 20260830175202 | 96 | 197 | 5.0 | 6.0 | 0.00 | 0.00 | 0.00 | 34 | 1017.3 |
| 20260830174657 | 96 | 224 | 5.0 | 9.0 | 0.00 | 0.00 | 0.00 | 33 | 1017.3 |
| 20260830174153 | 95 | 145 | 2.0 | 2.0 | 0.00 | 0.00 | 0.00 | 34 | 1017.3 |
| 20260830173648 | 96 | 284 | 3.0 | 3.0 | 0.00 | 0.00 | 0.00 | 33 | 1017.3 |
| 20260830173143 | 96 | 146 | 5.0 | 5.0 | 0.00 | 0.00 | 0.00 | 33 | 1017.6 |
| 20260830172640 | 96 | 197 | 3.0 | 2.0 | 0.00 | 0.00 | 0.00 | 33 | 1017.6 |
| 20260830172136 | 96 | 281 | 5.0 | 7.0 | 0.00 | 0.00 | 0.00 | 34 | 1018.1 |
| 20260830171630 | 95 | 4 | 1.0 | 1.0 | 0.00 | 0.00 | 0.00 | 34 | 1018.1 |
| 20260830171125 | 94 | 178 | 6.0 | 8.0 | 0.00 | 0.00 | 0.00 | 36 | 1018.4 |
| 20260830170625 | 94 | 123 | 4.0 | 5.0 | 0.00 | 0.00 | 0.00 | 36 | 1018.4 |
| 20260830170124 | 94 | 224 | 5.0 | 6.0 | 0.00 | 0.00 | 0.00 | 35 | 1018.4 |
| 20260830165619 | 93 | 153 | 4.0 | 5.0 | 0.00 | 0.00 | 0.00 | 36 | 1018.4 |
| 20260830165115 | 93 | 170 | 7.0 | 8.0 | 0.00 | 0.00 | 0.00 | 35 | 1018.8 |
| 20260830164611 | 93 | 168 | 4.0 | 5.0 | 0.00 | 0.00 | 0.00 | 36 | 1018.8 |
| 20260830164107 | 93 | 92 | 4.0 | 5.0 | 0.00 | 0.00 | 0.00 | 36 | 1018.8 |
| 20260830163604 | 93 | 88 | 3.0 | 5.0 | 0.00 | 0.00 | 0.00 | 37 | 1018.8 |
| 20260830163103 | 92 | 118 | 2.0 | 3.0 | 0.00 | 0.00 | 0.00 | 36 | 1018.8 |
| 20260830162558 | 93 | 166 | 4.0 | 6.0 | 0.00 | 0.00 | 0.00 | 35 | 1018.8 |
| 20260830162054 | 92 | 152 | 3.0 | 5.0 | 0.00 | 0.00 | 0.00 | 36 | 1018.8 |
| 20260830161548 | 92 | 260 | 2.0 | 2.0 | 0.00 | 0.00 | 0.00 | 37 | 1018.8 |
| 20260830161043 | 92 | 129 | 3.0 | 6.0 | 0.00 | 0.00 | 0.00 | 37 | 1018.8 |
| 20260830160539 | 91 | 319 | 0.0 | 1.0 | 0.00 | 0.00 | 0.00 | 38 | 1018.4 |
| 20260830160034 | 90 | 157 | 7.0 | 7.0 | 0.00 | 0.00 | 0.00 | 39 | 1018.4 |
| 20260830155525 | 90 | 24 | 5.0 | 7.0 | 0.00 | 0.00 | 0.00 | 39 | 1018.4 |
| 20260830155021 | 90 | 208 | 6.0 | 7.0 | 0.00 | 0.00 | 0.00 | 39 | 1018.4 |
| 20260830154515 | 90 | 229 | 5.0 | 7.0 | 0.00 | 0.00 | 0.00 | 39 | 1018.8 |
| 20260830154006 | 89 | 154 | 4.0 | 6.0 | 0.00 | 0.00 | 0.00 | 39 | 1018.8 |